Location: Newark
(34.6283°N, 36.0776°E)
Time: 13:27:09
(UTC+00:00)

Tiros 1 despin weight - Pass Details

Date: 22 September 2019
Orbit: 594 x 643 km, 48.2° (Epoch: 16 October)

Event Time Altitude Azimuth Distance (km) Brightness Sun altitude
Rises 16:21:38 0° 296° (WNW) 2,832 ? -10.8°
Reaches altitude 10° 16:24:10 10° 285° (WNW) 1,923 ? -11.3°
Maximum altitude 16:27:54 27° 227° (SW) 1,136 ? -12.0°
Drops below altitude 10° 16:31:37 10° 168° (SSE) 1,912 ? -12.8°
Enters shadow 16:33:39 - 158° (SSE) 2,631 ? -13.2°
Sets 16:34:09 0° 157° (SSE) 2,812 - -13.3°
